Location: Dodgeville
(42.9600°N, 90.1300°W)
Time: 13:13:34
(UTC-05:00)

Amateur Radio Satellites - All Passes

Search period start: 25 October 2014 12:43
Search period end: 26 October 2014 12:43
Location: Dodgeville, 42.9600°N, 90.1300°W

Satellite Date Start Highest point End Downlink Frequencies (MHz)
Time Altitude Azimuth
Uribyol 2 25 Oct 12:43:40 12:45:54 13° 57° (ENE) 12:48:08 436.500 FM
ITAMSAT 1 25 Oct 12:49:33 12:52:03 14° 58° (ENE) 12:54:33 435.822 SSB
ISS 25 Oct 12:56:29 12:59:45 56° 142° (SE) 13:03:02 145.800 FM
Sapphire 25 Oct 13:11:54 13:17:23 82° 59° (ENE) 13:22:48 437.095 MHz 1200 baud AX-25 AFSK
Oscar 19 25 Oct 13:13:02 13:17:58 48° 70° (ENE) 13:22:54 437.125 CW, 437.150 USB
Gurwin Techsat 1B 25 Oct 13:13:40 13:15:38 12° 57° (ENE) 13:17:36 435.225 FM
TMSAT-1 25 Oct 13:24:58 13:26:30 11° 56° (NE) 13:28:02 436.925 FM
JAS-1B 25 Oct 13:30:55 13:36:43 60° 71° (ENE) 13:42:18 435.800 - 435.900 CW/SSB
AO-27 25 Oct 13:32:48 13:37:23 32° 66° (ENE) 13:42:00 436.795 MHz FM
SO-50 25 Oct 13:33:44 13:38:13 70° 306° (NW) 13:42:52 436.795 FM
PCSat 25 Oct 13:34:29 13:39:51 62° 244° (WSW) 13:45:10 145.825 MHz
AO-7 25 Oct 13:34:52 13:36:23 11° 38° (NE) 13:37:54 29.400 - 29.500 MHz
AO-Echo 25 Oct 13:48:45 13:53:30 53° 71° (ENE) 13:58:27 ?
KITSAT 1 25 Oct 13:51:01 13:58:42 46° 312° (NW) 14:06:26 435.175 FM
Oscar 16 25 Oct 13:58:43 14:03:50 64° 258° (WSW) 14:08:59 437.025 USB, Beacon 2401.1428
Uribyol 2 25 Oct 14:19:21 14:24:34 87° 74° (ENE) 14:29:50 436.500 FM
ITAMSAT 1 25 Oct 14:25:34 14:30:47 88° 256° (WSW) 14:36:03 435.822 SSB
ISS 25 Oct 14:33:39 14:36:36 28° 341° (NNW) 14:39:34 145.800 FM
Saudisat 1A 25 Oct 14:38:36 14:40:38 13° 34° (NE) 14:42:39 436.775 MHz
Gurwin Techsat 1B 25 Oct 14:49:26 14:54:44 81° 75° (ENE) 15:00:05 435.225 FM
UOSAT-12 25 Oct 14:53:32 14:58:09 73° 122° (ESE) 15:02:52 437.025 FM, 437.400 FM
Oscar 19 25 Oct 14:53:40 14:57:33 21° 267° (W) 15:01:27 437.125 CW, 437.150 USB
Sapphire 25 Oct 14:57:18 15:00:03 14° 257° (WSW) 15:02:48 437.095 MHz 1200 baud AX-25 AFSK
TMSAT-1 25 Oct 15:00:13 15:05:30 76° 74° (ENE) 15:10:49 436.925 FM
AO-27 25 Oct 15:12:09 15:16:50 33° 263° (W) 15:21:33 436.795 MHz FM
SO-50 25 Oct 15:17:18 15:19:40 14° 327° (NNW) 15:22:03 436.795 FM
AO-7 25 Oct 15:19:21 15:27:00 44° 61° (ENE) 15:34:40 29.400 - 29.500 MHz
JAS-1B 25 Oct 15:24:03 15:27:54 18° 268° (W) 15:31:40 435.800 - 435.900 CW/SSB
AO-Echo 25 Oct 15:29:15 15:32:38 18° 269° (W) 15:36:06 ?
Uosat F 25 Oct 15:35:09 15:39:14 26° 64° (ENE) 15:43:21 435.120 FM
KITSAT 1 25 Oct 15:51:32 15:56:29 17° 339° (NNW) 16:01:27 435.175 FM
Uribyol 2 25 Oct 16:02:56 16:04:43 12° 272° (W) 16:06:30 436.500 FM
ITAMSAT 1 25 Oct 16:09:52 16:11:00 11° 273° (W) 16:12:09 435.822 SSB
JAS-2 25 Oct 16:10:26 16:14:44 20° 55° (NE) 16:19:21 435.800 - 435.900 CW/SSB, 435.910 FM
ISS 25 Oct 16:11:40 16:14:04 18° 1° (N) 16:16:28 145.800 FM
Saudisat 1A 25 Oct 16:16:35 16:21:01 70° 54° (NE) 16:25:25 436.775 MHz
Gurwin Techsat 1B 25 Oct 16:32:58 16:35:20 13° 272° (W) 16:37:43 435.225 FM
UOSAT-12 25 Oct 16:35:26 16:38:49 19° 321° (NW) 16:42:15 437.025 FM, 437.400 FM
TMSAT-1 25 Oct 16:43:18 16:46:00 14° 271° (W) 16:48:43 436.925 FM
AO-7 25 Oct 17:11:54 17:19:43 46° 260° (W) 17:27:37 29.400 - 29.500 MHz
Uosat F 25 Oct 17:13:06 17:17:48 40° 262° (W) 17:22:34 435.120 FM
OPAL 25 Oct 17:18:48 17:22:05 18° 94° (E) 17:25:20 ?
AO-40 25 Oct 17:28:07 23:22:24 40° 184° (S) 05:12:42 Beacon 2401.320
ISS 25 Oct 17:48:29 17:51:30 30° 21° (NNE) 17:54:31 145.800 FM
Hamsat 25 Oct 17:51:53 17:56:04 72° 76° (ENE) 18:00:16 145.90 MHz
KITSAT 1 25 Oct 17:52:04 17:55:57 14° 10° (N) 17:59:50 435.175 FM
JAS-2 25 Oct 17:52:52 17:58:50 80° 257° (WSW) 18:05:41 435.800 - 435.900 CW/SSB, 435.910 FM
Saudisat 1A 25 Oct 17:57:54 18:00:01 13° 251° (WSW) 18:02:08 436.775 MHz
SO-67 25 Oct 18:31:28 18:34:08 21° 69° (ENE) 18:36:48 435.3500 MHz FM
OPAL 25 Oct 18:56:27 19:01:19 56° 291° (WNW) 19:06:08 ?
HO-68 25 Oct 19:02:44 19:06:26 15° 50° (NE) 19:10:09 435.675 MHz FM
STRAND 1 25 Oct 19:03:50 19:08:04 25° 94° (E) 19:12:14 ?
ISS 25 Oct 19:25:04 19:28:19 48° 219° (SW) 19:31:32 145.800 FM
JAS-2 25 Oct 19:43:09 19:45:14 12° 278° (W) 19:47:25 435.800 - 435.900 CW/SSB, 435.910 FM
KITSAT 1 25 Oct 19:47:33 19:54:32 31° 39° (NE) 20:01:28 435.175 FM
SO-67 25 Oct 20:04:17 20:07:01 22° 265° (W) 20:09:45 435.3500 MHz FM
RS-15 25 Oct 20:10:16 20:13:37 12° 94° (E) 20:16:57 29.354 - 29.394 USB, Beacon 29.352 USB
SO-50 25 Oct 20:24:30 20:28:17 22° 41° (NE) 20:32:06 436.795 FM
STRAND 1 25 Oct 20:42:33 20:47:23 42° 291° (WNW) 20:52:11 ?
HO-68 25 Oct 20:45:47 20:52:53 69° 70° (ENE) 21:00:01 435.675 MHz FM
ZACube-1 25 Oct 21:04:45 21:06:44 13° 61° (ENE) 21:08:42 437.345 MHz
UKube-1 25 Oct 21:05:55 21:09:44 30° 68° (ENE) 21:13:33 145.840 MHz, 145.915 MHz
KITSAT 1 25 Oct 21:42:40 21:50:46 79° 242° (WSW) 21:58:48 435.175 FM
UOSAT-12 25 Oct 21:43:26 21:46:14 15° 35° (NE) 21:49:01 437.025 FM, 437.400 FM
Oscar 11 25 Oct 21:45:59 21:50:17 71° 75° (ENE) 21:54:36 145.825 FM, Beacon 2401.500 USB
FUNcube-1 25 Oct 21:46:48 21:50:51 32° 69° (ENE) 21:54:52 145.950 - 145.970 MHz USB
SO-50 25 Oct 22:04:27 22:09:15 63° 240° (WSW) 22:14:05 436.795 FM
RS-15 25 Oct 22:12:45 22:23:30 63° 115° (ESE) 22:34:11 29.354 - 29.394 USB, Beacon 29.352 USB
HO-68 25 Oct 22:35:42 22:41:09 23° 268° (W) 22:46:39 435.675 MHz FM
ZACube-1 25 Oct 22:37:57 22:42:32 75° 258° (WSW) 22:47:04 437.345 MHz
UKube-1 25 Oct 22:42:17 22:45:54 26° 264° (W) 22:49:33 145.840 MHz, 145.915 MHz
MaSat-1 25 Oct 23:13:38 23:17:10 28° 110° (ESE) 23:20:26 437.345 MHz
UOSAT-12 25 Oct 23:22:25 23:27:10 80° 55° (NE) 23:31:49 437.025 FM, 437.400 FM
FUNcube-1 25 Oct 23:23:24 23:27:14 26° 265° (W) 23:31:02 145.950 - 145.970 MHz USB
Oscar 11 25 Oct 23:26:00 23:26:56 11° 271° (W) 23:27:53 145.825 FM, Beacon 2401.500 USB
KITSAT 1 25 Oct 23:40:33 23:44:51 16° 260° (W) 23:49:09 435.175 FM
RS-15 26 Oct 00:26:01 00:36:20 45° 320° (NW) 00:46:45 29.354 - 29.394 USB, Beacon 29.352 USB
Oscar 10/S400 26 Oct 00:28:33 01:30:33 26° 234° (SW) 04:46:05 145.825 - 145.975 CW/USB, Beacon 145.810 USB
MaSat-1 26 Oct 00:49:23 00:52:44 25° 303° (WNW) 00:55:48 437.345 MHz
UOSAT-12 26 Oct 01:04:38 01:06:38 13° 253° (WSW) 01:08:37 437.025 FM, 437.400 FM
JAS-1B 26 Oct 01:13:23 01:17:40 17° 91° (E) 01:22:20 435.800 - 435.900 CW/SSB
Oscar 19 26 Oct 01:25:01 01:28:02 16° 90° (E) 01:31:01 437.125 CW, 437.150 USB
AO-Echo 26 Oct 01:55:59 01:59:29 18° 90° (E) 02:02:58 ?
Oscar 16 26 Oct 02:09:37 02:14:29 42° 98° (E) 02:19:18 437.025 USB, Beacon 2401.1428
Uribyol 2 26 Oct 02:31:43 02:36:13 29° 95° (E) 02:40:40 436.500 FM
PCSat 26 Oct 02:36:33 02:39:25 15° 103° (ESE) 02:42:18 145.825 MHz
ITAMSAT 1 26 Oct 02:37:59 02:42:37 31° 96° (E) 02:47:11 435.822 SSB
RS-15 26 Oct 02:44:14 02:52:32 24° 353° (N) 03:00:58 29.354 - 29.394 USB, Beacon 29.352 USB
JAS-1B 26 Oct 03:02:04 03:08:47 89° 286° (WNW) 03:16:51 435.800 - 435.900 CW/SSB
Oscar 19 26 Oct 03:02:45 03:07:50 65° 287° (WNW) 03:12:53 437.125 CW, 437.150 USB
Gurwin Techsat 1B 26 Oct 03:05:11 03:09:50 30° 95° (E) 03:14:28 435.225 FM
TMSAT-1 26 Oct 03:15:40 03:20:12 28° 95° (E) 03:24:42 436.925 FM
AO-27 26 Oct 03:23:34 03:28:50 82° 104° (ESE) 03:34:03 436.795 MHz FM
AO-Echo 26 Oct 03:33:23 03:38:39 63° 287° (WNW) 03:43:53 ?
Oscar 16 26 Oct 03:49:27 03:53:36 26° 295° (WNW) 03:57:45 437.025 USB, Beacon 2401.1428
Sapphire 26 Oct 03:54:23 03:59:43 64° 116° (ESE) 04:05:06 437.095 MHz 1200 baud AX-25 AFSK
Uribyol 2 26 Oct 04:10:58 04:15:44 37° 292° (WNW) 04:20:27 436.500 FM
PCSat 26 Oct 04:16:42 04:22:07 80° 301° (WNW) 04:27:35 145.825 MHz
ITAMSAT 1 26 Oct 04:17:24 04:22:06 35° 293° (WNW) 04:26:46 435.822 SSB
OPAL 26 Oct 04:33:54 04:38:36 37° 66° (ENE) 04:43:15 ?
Gurwin Techsat 1B 26 Oct 04:45:00 04:49:50 36° 292° (WNW) 04:54:39 435.225 FM
JAS-1B 26 Oct 04:54:35 04:58:47 18° 302° (WNW) 05:03:23 435.800 - 435.900 CW/SSB
TMSAT-1 26 Oct 04:55:18 05:00:12 39° 292° (WNW) 05:05:04 436.925 FM
RS-15 26 Oct 05:00:01 05:09:37 32° 28° (NNE) 05:19:29 29.354 - 29.394 USB, Beacon 29.352 USB
JAS-2 26 Oct 05:01:57 05:07:09 19° 87° (E) 05:12:19 435.800 - 435.900 CW/SSB, 435.910 FM
AO-27 26 Oct 05:04:52 05:07:39 15° 302° (WNW) 05:10:25 436.795 MHz FM
AO-7 26 Oct 05:11:40 05:19:54 60° 103° (ESE) 05:28:06 29.400 - 29.500 MHz
Uosat F 26 Oct 05:19:29 05:24:29 57° 101° (E) 05:29:26 435.120 FM
Hamsat 26 Oct 05:38:39 05:40:11 12° 89° (E) 05:41:43 145.90 MHz
Sapphire 26 Oct 05:39:19 05:43:36 23° 316° (NW) 05:47:55 437.095 MHz 1200 baud AX-25 AFSK
PCSat 26 Oct 06:03:04 06:06:26 16° 322° (NW) 06:09:48 145.825 MHz
OPAL 26 Oct 06:13:06 06:17:31 28° 262° (W) 06:21:54 ?
STRAND 1 26 Oct 06:20:28 06:25:13 40° 68° (ENE) 06:30:00 ?
Saudisat 1A 26 Oct 06:25:54 06:28:11 14° 109° (ESE) 06:30:28 436.775 MHz
JAS-2 26 Oct 06:45:11 06:53:02 89° 105° (ESE) 07:00:50 435.800 - 435.900 CW/SSB, 435.910 FM
Uosat F 26 Oct 06:59:19 07:02:49 19° 298° (WNW) 07:06:19 435.120 FM
AO-7 26 Oct 07:05:03 07:12:16 35° 303° (WNW) 07:19:29 29.400 - 29.500 MHz
Hamsat 26 Oct 07:12:22 07:16:31 61° 286° (WNW) 07:20:41 145.90 MHz
RS-15 26 Oct 07:12:38 07:23:52 83° 56° (NE) 07:35:33 29.354 - 29.394 USB, Beacon 29.352 USB
SO-67 26 Oct 07:26:17 07:29:00 21° 95° (E) 07:31:43 435.3500 MHz FM
STRAND 1 26 Oct 08:00:15 08:04:30 26° 265° (W) 08:08:48 ?
Saudisat 1A 26 Oct 08:02:51 08:07:12 66° 306° (NW) 08:11:36 436.775 MHz
HO-68 26 Oct 08:17:01 08:18:09 10° 85° (E) 08:19:17 435.675 MHz FM
JAS-2 26 Oct 08:31:29 08:37:06 23° 303° (WNW) 08:42:46 435.800 - 435.900 CW/SSB, 435.910 FM
MaSat-1 26 Oct 08:58:11 09:00:45 52° 61° (ENE) 09:03:07 437.345 MHz
SO-67 26 Oct 08:59:12 09:01:54 22° 291° (WNW) 09:04:35 435.3500 MHz FM
RS-15 26 Oct 09:26:13 09:35:02 28° 257° (WSW) 09:44:10 29.354 - 29.394 USB, Beacon 29.352 USB
Oscar 11 26 Oct 09:34:45 09:36:25 12° 90° (E) 09:38:05 145.825 FM, Beacon 2401.500 USB
Saudisat 1A 26 Oct 09:45:48 09:47:38 12° 327° (NNW) 09:49:28 436.775 MHz
HO-68 26 Oct 09:59:58 10:07:09 66° 103° (ESE) 10:14:17 435.675 MHz FM
KITSAT 1 26 Oct 10:22:26 10:25:19 12° 98° (E) 10:28:12 435.175 FM
ZACube-1 26 Oct 10:27:24 10:30:25 19° 92° (E) 10:33:24 437.345 MHz
UKube-1 26 Oct 10:28:39 10:32:55 48° 100° (E) 10:37:07 145.840 MHz, 145.915 MHz
Oscar 10/S400 26 Oct 10:58:34 11:11:58 15° 152° (SSE) 11:21:50 145.825 - 145.975 CW/USB, Beacon 145.810 USB
Sapphire 26 Oct 10:59:40 11:02:19 14° 35° (NE) 11:04:58 437.095 MHz 1200 baud AX-25 AFSK
Oscar 11 26 Oct 11:08:45 11:13:01 63° 286° (WNW) 11:17:16 145.825 FM, Beacon 2401.500 USB
FUNcube-1 26 Oct 11:10:53 11:15:05 57° 100° (E) 11:19:10 145.950 - 145.970 MHz USB
PCSat 26 Oct 11:21:20 11:25:11 19° 41° (NE) 11:29:00 145.825 MHz
HO-68 26 Oct 11:48:32 11:54:18 27° 302° (WNW) 12:00:03 435.675 MHz FM
ZACube-1 26 Oct 12:03:03 12:06:59 37° 290° (WNW) 12:10:50 437.345 MHz
JAS-1B 26 Oct 12:03:44 12:05:53 12° 54° (NE) 12:08:01 435.800 - 435.900 CW/SSB
UKube-1 26 Oct 12:05:51 12:08:43 17° 297° (WNW) 12:11:35 145.840 MHz, 145.915 MHz
ISS 26 Oct 12:07:37 12:10:37 32° 138° (SE) 12:13:38 145.800 FM
KITSAT 1 26 Oct 12:11:13 12:19:11 68° 116° (ESE) 12:27:12 435.175 FM
SO-50 26 Oct 12:20:27 12:24:29 34° 115° (ESE) 12:28:38 436.795 FM
